Wind_Speed
13 14 16 16 17 19 20 19 18 18 19 20 21 22 22 22 20 18 22 23 18 16 16 18 13 13 14 14 9 8 8 8 7 9 15 15 16 15 11 12 11 10 7 5 8
19 20 20 20 21 20 21 22 23 21 20 20 19 20 22 22 23 24 23 24 22 18 17 19 18 14 15 14 14 13 12 7 5 14 15 18 15 12 10 11 10 8 8 5 6
24 23 25 25 26 25 24 24 23 24 25 23 21 19 19 21 22 23 26 24 24 23 24 21 18 16 16 17 17 16 14 15 11 11 15 19 18 10 10 10 12 8 7 5 7
31 31 31 31 31 31 30 29 28 25 25 26 26 22 20 19 23 25 25 27 26 25 24 23 18 19 18 20 21 16 18 19 20 10 17 20 16 11 8 11 12 8 6 4 8
32 35 36 37 34 36 37 35 34 31 29 28 28 27 23 21 27 21 24 28 28 26 24 25 20 20 22 25 21 16 14 11 10 15 19 20 15 8 5 8 10 7 7 6 7
29 33 37 39 42 39 40 40 40 37 36 33 31 29 28 28 26 20 24 27 30 29 28 27 24 24 26 27 26 20 12 7 8 16 17 21 15 7 9 7 9 9 9 8 5
34 37 37 39 41 42 44 44 44 43 42 38 36 32 28 36 28 23 24 27 31 32 30 30 30 29 28 27 27 30 17 20 17 13 15 20 13 5 7 8 10 10 8 8 9
37 38 41 40 40 43 46 47 45 46 46 44 41 38 32 38 31 32 30 29 31 33 33 35 35 32 30 30 27 24 27 22 19 12 16 14 9 8 5 6 7 8 9 8 9
37 38 38 35 35 38 41 45 47 47 46 47 45 42 40 39 36 36 32 31 30 33 37 40 38 35 34 29 28 26 25 23 17 13 18 14 9 7 6 6 8 9 9 9 8
30 30 27 25 25 25 27 34 41 44 42 45 47 45 43 42 39 36 35 34 30 33 41 44 40 37 34 30 26 27 29 24 22 20 21 15 12 14 12 10 10 11 12 10 8
25 26 22 23 23 22 24 25 23 26 35 36 39 41 44 45 43 40 37 39 35 34 38 45 43 36 32 31 31 31 33 27 28 21 19 18 17 16 14 12 9 10 12 14 14
22 21 21 21 21 20 20 17 15 14 15 26 33 30 38 44 45 43 40 42 41 34 34 43 44 38 35 33 33 31 37 34 32 25 23 21 17 18 12 14 9 7 7 12 15
21 24 23 22 19 18 20 17 15 13 12 17 21 22 30 40 41 44 44 43 44 40 37 37 35 40 40 34 35 37 32 28 28 28 24 22 23 22 15 14 10 8 9 8 16
21 23 24 21 18 18 21 19 17 16 16 15 15 21 28 36 38 44 47 46 47 44 40 36 35 43 44 40 37 39 31 33 34 31 31 27 28 20 12 17 14 12 11 11 14
19 20 18 17 18 16 19 18 21 20 20 18 13 18 23 31 38 43 48 51 46 46 46 36 35 44 48 44 42 45 40 40 39 36 34 33 28 21 19 16 15 14 13 14 13
23 20 18 18 18 21 21 21 18 22 23 22 19 17 18 25 35 46 47 50 47 47 49 41 38 43 45 43 45 45 48 47 44 37 39 30 29 24 14 16 18 15 15 18 17
21 20 17 18 18 20 23 22 21 21 20 23 23 21 17 19 28 39 45 49 49 52 53 47 44 44 48 52 53 50 53 54 49 43 34 29 32 18 15 20 17 14 16 18 16
20 20 19 16 17 21 21 22 21 22 21 19 21 22 20 14 25 30 36 44 50 53 52 49 49 46 48 53 54 55 54 57 57 46 38 32 26 11 19 21 17 15 18 19 17
20 16 17 18 18 19 20 22 23 24 18 18 21 22 24 20 18 29 33 40 49 57 54 53 53 45 44 49 53 57 57 51 53 45 45 39 22 25 26 27 19 12 25 17 16
23 20 19 18 19 17 21 23 23 25 17 16 24 24 19 25 23 25 29 34 37 52 56 58 55 51 45 47 54 57 53 56 60 55 47 42 29 27 25 24 20 17 19 15 14
21 17 17 17 18 19 24 22 23 20 19 16 22 29 27 29 28 29 30 29 36 43 55 59 59 51 50 51 53 59 58 59 58 57 51 44 33 29 28 29 26 22 18 17 16
18 18 18 19 21 22 22 22 22 18 18 21 23 27 34 35 37 33 35 36 35 40 47 59 60 55 53 49 50 56 57 59 62 60 56 48 38 31 28 28 25 26 21 19 21
19 22 22 23 26 26 26 26 25 24 24 25 31 33 36 41 47 47 40 41 43 40 44 53 59 56 54 50 51 59 61 64 65 62 60 53 38 32 28 24 25 21 20 21 18
19 22 25 26 29 29 30 30 31 31 34 37 38 40 49 47 52 56 55 50 45 48 46 49 57 57 55 58 58 62 64 66 66 64 60 57 44 33 33 30 27 22 20 20 20
21 24 27 32 32 34 36 35 35 38 42 42 41 44 50 59 52 61 65 60 55 51 53 51 51 54 55 57 59 62 63 65 65 64 63 56 52 41 35 29 31 28 22 22 20
25 28 32 33 36 40 41 39 42 41 37 37 33 34 40 46 48 57 66 68 64 56 58 56 52 54 56 59 58 55 60 63 62 59 62 57 52 45 36 34 31 29 24 25 25
29 34 36 37 44 42 40 44 43 31 30 27 22 20 26 31 35 45 63 68 70 65 59 60 56 55 56 60 58 54 57 61 59 59 59 58 50 47 39 40 37 36 28 27 29
Wind_Direction
298 296 294 288 281 275 270 266 265 263 261 256 253 252 249 243 239 231 229 235 238 234 222 229 206 193 201 203 204 137 147 163 140 119 104 81 73 59 51 59 71 77 78 93 103
292 291 288 284 283 280 276 270 264 261 259 258 255 251 249 245 238 227 229 232 234 231 229 223 217 194 191 201 211 181 207 215 166 127 104 80 63 53 53 57 52 75 92 106 115
292 290 288 284 278 276 278 272 268 263 257 254 252 250 247 244 240 232 223 224 228 225 230 225 222 199 190 200 210 203 228 227 212 134 105 90 75 58 68 63 51 41 79 101 123
288 282 282 284 277 275 272 270 269 266 262 257 250 245 243 241 240 233 222 220 222 221 224 231 219 210 197 196 213 203 222 243 221 174 119 108 98 69 66 54 56 35 49 94 126
289 285 283 277 284 272 269 268 264 264 263 259 254 247 240 236 240 233 225 216 219 218 214 220 218 214 201 200 198 213 223 235 241 197 134 120 116 112 73 58 62 60 70 99 120
300 292 283 280 278 275 269 264 262 259 257 256 254 249 243 240 239 229 231 216 213 215 212 218 217 209 210 202 209 189 197 234 283 186 146 133 117 128 112 97 77 61 76 102 117
304 304 295 285 280 277 273 267 262 255 253 250 250 246 243 243 235 233 229 222 211 211 209 208 213 213 217 214 214 214 209 237 262 258 157 139 119 155 131 102 74 71 85 105 116
306 306 304 294 285 278 273 267 262 256 251 247 244 242 235 241 231 231 224 223 215 210 205 208 213 211 214 218 212 216 223 232 256 260 186 148 123 181 120 79 84 79 101 119 121
312 311 309 305 296 287 278 269 262 257 255 248 240 237 232 236 233 229 228 227 219 210 206 209 213 210 212 216 209 210 216 231 239 226 191 173 154 162 157 161 132 114 102 126 134
313 310 315 318 315 312 294 278 268 263 257 251 242 235 231 232 231 230 227 228 224 215 209 210 215 215 213 213 215 204 207 227 239 218 208 177 156 163 182 181 159 138 121 129 140
303 297 303 319 315 311 315 293 280 269 259 254 247 238 233 228 227 226 222 226 224 222 215 213 212 216 216 211 207 198 200 214 228 219 197 179 166 181 188 193 179 153 134 134 143
291 286 296 313 312 319 313 324 302 286 265 264 246 237 234 228 223 224 221 222 224 220 221 217 211 208 211 212 203 196 200 199 211 223 215 195 187 180 180 195 191 154 145 144 145
281 277 288 296 301 315 316 316 321 308 296 261 264 228 231 226 220 219 217 218 222 220 220 221 209 207 208 207 202 200 206 197 212 214 215 202 205 183 184 194 191 167 161 163 151
281 277 282 285 289 303 305 304 300 290 302 280 259 232 218 222 215 218 214 216 217 219 217 218 207 205 206 203 200 201 202 194 209 223 220 209 210 192 193 195 194 176 179 170 160
298 280 273 273 286 298 313 302 283 279 273 287 281 240 233 220 211 211 212 211 215 217 220 211 209 206 205 201 198 198 195 199 211 218 220 220 219 210 214 200 204 185 181 184 170
296 287 258 272 285 296 306 307 293 271 265 267 265 260 252 225 214 207 211 209 208 212 219 209 207 209 203 201 202 197 199 200 209 221 224 221 224 211 208 200 202 200 187 195 179
301 292 273 266 284 298 303 305 295 273 262 253 257 254 252 244 219 213 207 210 205 210 214 206 205 209 201 196 201 199 200 203 209 216 213 220 229 207 226 191 189 198 198 200 192
298 291 288 280 282 296 307 311 299 286 263 247 252 258 252 243 223 216 210 208 206 207 211 207 209 207 202 202 200 199 204 203 207 214 217 219 221 208 201 171 179 209 217 205 195
299 294 297 284 280 299 305 306 307 309 281 250 230 244 253 246 228 226 215 212 210 208 207 205 208 206 208 204 204 201 201 206 213 215 219 217 207 198 192 182 177 214 223 214 206
299 282 297 286 289 300 309 301 296 298 295 254 226 228 239 248 235 225 233 220 217 213 206 206 205 204 205 205 205 207 201 204 211 213 217 216 196 175 170 168 168 182 170 191 216
296 286 287 289 290 299 308 299 294 284 276 253 235 227 228 233 236 229 227 232 222 217 209 207 205 202 205 204 202 206 205 205 212 215 219 219 186 174 162 163 172 152 155 189 205
297 289 289 291 297 301 300 297 291 273 261 258 241 236 228 229 230 227 227 224 229 223 215 208 207 200 205 206 202 207 206 207 212 213 217 219 194 194 181 177 172 166 163 176 201
302 295 293 298 305 306 303 300 289 277 271 256 246 248 239 227 227 230 222 223 223 229 223 213 208 198 202 204 201 206 204 207 210 212 216 218 196 206 197 190 178 177 183 170 170
311 308 307 312 312 310 305 299 290 283 279 276 268 255 247 243 226 224 227 222 223 223 226 220 211 203 200 201 202 205 204 207 210 212 214 217 203 207 214 200 194 184 191 185 195
314 315 315 318 315 311 303 295 293 292 287 280 266 257 250 246 236 223 219 221 218 223 222 222 218 209 200 202 206 207 205 208 210 211 215 215 211 205 219 218 210 203 208 209 212
320 320 322 319 317 313 307 301 301 297 284 274 266 257 253 249 242 223 220 214 216 215 219 220 217 214 200 201 208 210 210 209 211 212 216 215 213 207 217 222 230 223 221 220 206
326 325 323 322 318 315 309 308 304 288 276 267 259 251 260 258 247 230 220 214 210 209 214 217 215 215 202 200 204 208 212 213 212 212 215 215 213 206 212 226 227 226 236 217 205
Height
5869 5867 5866 5865 5865 5864 5863 5863 5862 5862 5862 5863 5864 5865 5866 5869 5871 5874 5874 5875 5878 5881 5885 5885 5890 5891 5892 5892 5893 5894 5897 5898 5898 5896 5895 5895 5894 5894 5895 5895 5895 5896 5897 5897 5897
5865 5864 5862 5861 5860 5859 5858 5858 5858 5858 5858 5859 5860 5861 5862 5863 5866 5869 5871 5872 5875 5879 5881 5883 5887 5890 5892 5892 5894 5896 5896 5896 5896 5895 5895 5894 5895 5896 5898 5899 5898 5898 5897 5898 5899
5861 5859 5858 5856 5855 5854 5853 5853 5853 5853 5854 5855 5856 5857 5858 5859 5860 5862 5865 5868 5871 5874 5876 5880 5885 5890 5891 5892 5894 5895 5896 5897 5898 5894 5895 5894 5897 5900 5901 5901 5900 5899 5898 5899 5900
5854 5852 5851 5850 5848 5847 5847 5846 5846 5846 5847 5848 5850 5853 5854 5855 5856 5856 5860 5863 5867 5870 5874 5876 5883 5886 5891 5891 5891 5893 5894 5895 5898 5896 5894 5895 5899 5901 5903 5902 5901 5902 5900 5900 5901
5847 5845 5842 5841 5839 5838 5838 5839 5838 5839 5840 5841 5842 5845 5849 5851 5848 5853 5855 5858 5862 5866 5870 5873 5879 5882 5887 5888 5890 5890 5892 5895 5897 5897 5896 5896 5899 5902 5903 5903 5904 5904 5904 5902 5902
5839 5837 5834 5832 5830 5828 5827 5828 5829 5831 5831 5833 5835 5838 5842 5843 5845 5849 5849 5853 5857 5862 5866 5869 5875 5878 5880 5884 5889 5889 5891 5893 5896 5898 5897 5896 5900 5903 5904 5906 5905 5904 5904 5903 5904
5830 5827 5824 5822 5820 5817 5816 5815 5817 5819 5821 5824 5826 5831 5835 5832 5839 5843 5844 5847 5851 5855 5861 5865 5868 5872 5875 5880 5884 5889 5892 5892 5895 5900 5897 5897 5899 5905 5905 5905 5904 5905 5905 5906 5905
5820 5816 5812 5809 5807 5804 5803 5802 5804 5806 5809 5813 5817 5821 5827 5824 5833 5833 5836 5839 5845 5850 5854 5858 5861 5866 5871 5874 5881 5886 5890 5892 5893 5896 5895 5896 5901 5904 5901 5902 5904 5906 5906 5907 5906
5810 5805 5801 5798 5795 5791 5790 5787 5790 5792 5795 5800 5806 5811 5817 5818 5823 5826 5832 5835 5839 5844 5847 5849 5855 5862 5866 5871 5877 5882 5887 5889 5891 5892 5892 5897 5900 5900 5900 5902 5903 5905 5906 5906 5907
5801 5796 5794 5790 5788 5784 5780 5776 5778 5780 5783 5785 5792 5801 5806 5810 5814 5820 5825 5827 5833 5836 5840 5843 5849 5855 5862 5868 5874 5879 5882 5886 5886 5890 5891 5895 5897 5899 5901 5902 5903 5904 5904 5906 5906
5793 5790 5788 5785 5782 5779 5774 5771 5773 5773 5772 5775 5780 5788 5792 5798 5804 5811 5817 5820 5824 5829 5835 5838 5845 5850 5859 5864 5869 5874 5879 5883 5884 5886 5889 5892 5894 5897 5899 5902 5905 5904 5902 5904 5907
5787 5784 5782 5780 5777 5773 5770 5768 5767 5765 5767 5764 5768 5776 5779 5786 5794 5801 5809 5813 5817 5824 5827 5832 5840 5851 5855 5860 5866 5871 5876 5880 5882 5883 5888 5889 5892 5894 5897 5900 5903 5904 5905 5903 5904
5779 5778 5777 5775 5773 5770 5767 5766 5765 5763 5763 5760 5759 5766 5769 5775 5784 5790 5798 5804 5810 5815 5820 5826 5841 5845 5849 5856 5863 5867 5874 5878 5880 5881 5881 5885 5888 5891 5895 5898 5900 5902 5904 5907 5903
5772 5772 5772 5769 5769 5766 5764 5762 5761 5759 5760 5757 5755 5756 5759 5763 5775 5778 5786 5795 5800 5808 5814 5819 5831 5836 5842 5851 5858 5864 5870 5873 5875 5878 5878 5881 5883 5888 5892 5896 5898 5899 5903 5906 5906
5767 5766 5765 5764 5762 5760 5759 5757 5755 5755 5755 5755 5754 5752 5754 5757 5761 5765 5773 5781 5792 5800 5805 5817 5822 5826 5833 5844 5852 5860 5865 5870 5872 5872 5874 5877 5881 5884 5888 5895 5897 5897 5901 5905 5907
5761 5759 5758 5758 5757 5756 5753 5750 5748 5749 5747 5748 5748 5748 5751 5750 5753 5756 5763 5772 5783 5790 5796 5808 5813 5819 5830 5842 5846 5853 5859 5862 5863 5865 5867 5875 5878 5881 5886 5890 5893 5895 5899 5902 5905
5755 5753 5752 5751 5751 5749 5747 5744 5742 5739 5740 5741 5742 5744 5747 5748 5750 5751 5756 5764 5772 5779 5785 5798 5803 5810 5819 5825 5833 5843 5849 5852 5857 5858 5868 5873 5874 5884 5885 5887 5890 5894 5898 5902 5904
5749 5747 5746 5746 5745 5743 5740 5737 5733 5731 5731 5734 5736 5738 5741 5746 5747 5746 5749 5754 5760 5767 5776 5789 5796 5802 5813 5820 5826 5832 5840 5844 5848 5856 5865 5869 5872 5881 5881 5883 5887 5892 5897 5902 5904
5743 5742 5740 5739 5739 5737 5735 5731 5727 5726 5728 5730 5731 5732 5735 5740 5744 5743 5744 5748 5752 5757 5767 5778 5787 5798 5805 5816 5822 5826 5829 5846 5850 5855 5854 5862 5871 5873 5876 5880 5887 5892 5895 5901 5902
5738 5736 5735 5733 5732 5731 5729 5725 5722 5720 5721 5723 5726 5727 5729 5732 5739 5739 5740 5744 5745 5751 5759 5767 5781 5788 5798 5806 5813 5820 5831 5835 5837 5843 5849 5856 5867 5871 5876 5882 5887 5890 5894 5897 5898
5731 5731 5729 5727 5726 5725 5722 5719 5716 5715 5714 5717 5719 5722 5724 5726 5729 5734 5736 5739 5742 5745 5752 5761 5770 5783 5788 5794 5805 5814 5818 5826 5833 5841 5846 5854 5865 5869 5875 5878 5883 5886 5890 5893 5895
5726 5725 5723 5721 5720 5718 5715 5712 5710 5709 5707 5708 5710 5713 5716 5718 5720 5725 5731 5733 5736 5739 5744 5751 5761 5773 5781 5790 5799 5805 5813 5821 5823 5832 5840 5849 5863 5867 5872 5876 5880 5881 5884 5887 5889
5720 5718 5717 5715 5711 5708 5705 5703 5701 5700 5700 5700 5700 5703 5706 5709 5712 5716 5720 5726 5730 5733 5737 5743 5753 5766 5772 5783 5790 5794 5802 5808 5814 5826 5833 5844 5858 5863 5869 5873 5876 5878 5881 5883 5885
5716 5712 5710 5707 5703 5699 5695 5692 5688 5686 5686 5686 5688 5689 5688 5692 5696 5701 5708 5715 5722 5726 5730 5736 5744 5754 5761 5767 5777 5783 5792 5800 5808 5819 5829 5837 5853 5858 5862 5868 5872 5875 5878 5880 5882
5711 5707 5703 5698 5693 5688 5685 5680 5676 5671 5668 5667 5667 5667 5668 5669 5675 5683 5690 5700 5710 5715 5721 5727 5736 5743 5753 5764 5772 5778 5788 5795 5802 5813 5821 5834 5843 5855 5858 5864 5869 5871 5875 5877 5882
5706 5701 5696 5690 5684 5678 5670 5664 5659 5653 5649 5646 5647 5646 5646 5648 5652 5664 5671 5681 5692 5703 5710 5718 5727 5733 5747 5756 5767 5778 5785 5792 5799 5808 5815 5828 5837 5849 5854 5859 5862 5868 5871 5874 5878
5701 5694 5688 5682 5674 5666 5657 5649 5642 5636 5632 5631 5633 5634 5635 5636 5638 5643 5651 5663 5677 5690 5699 5708 5719 5727 5740 5750 5761 5773 5780 5786 5795 5801 5810 5821 5836 5843 5849 5854 5860 5863 5868 5872 5877